DW5028 Weather Reports


Display with metric or nautical units.
time (UTC)temp
F
wind
direction
speed
MPH
gust
MPH
rain 1hr
in
rain 24hr
in
rain mn
in
humidity
%
barometer
mb
20181117061015 28 208 0.0 0.0 0.00 0.01 0.00 93 1006.9
20181117060012 28 222 0.0 0.0 0.00 0.01 0.00 92 1006.9
20181117055011 28 222 0.0 0.0 0.00 0.01 0.00 92 1007.0
20181117054012 28 223 0.0 0.0 0.00 0.01 0.00 93 1006.8
20181117052014 28 225 0.0 0.0 0.00 0.01 0.00 92 1006.6
20181117051012 27 229 0.0 0.0 0.00 0.01 0.00 92 1006.7
20181117050014 27 229 0.0 0.0 0.00 0.01 0.00 92 1006.7
20181117045013 27 227 0.0 0.0 0.00 0.01 0.01 92 1006.5
20181117044031 27 227 0.0 0.0 0.00 0.01 0.01 92 1006.4
20181117043014 27 227 0.0 0.0 0.00 0.01 0.01 92 1006.2
20181117041011 27 270 0.0 0.0 0.00 0.01 0.01 92 1005.8
20181117040015 27 242 0.0 0.0 0.00 0.01 0.01 92 1005.7
20181117035014 27 271 0.0 0.0 0.00 0.01 0.01 100 1005.5
20181117034011 27 272 0.0 0.0 0.00 0.01 0.01 100 1005.4
20181117033031 26 325 0.0 0.0 0.00 0.01 0.01 92 1005.2
20181117032014 26 325 0.0 0.0 0.00 0.01 0.01 92 1005.0
20181117030015 26 325 0.0 0.0 0.00 0.01 0.01 92 1004.8
20181117025018 26 325 0.0 0.0 0.00 0.01 0.01 92 1004.8
20181117024018 26 325 0.0 0.0 0.00 0.01 0.01 92 1004.7
20181117023016 26 325 0.0 0.0 0.00 0.01 0.01 92 1004.7
20181117022019 26 325 0.0 0.0 0.00 0.01 0.01 91 1004.6
20181117021018 26 325 0.0 0.0 0.00 0.01 0.01 91 1004.6
20181117020017 26 325 0.0 0.0 0.00 0.01 0.01 91 1004.4
20181117015020 26 325 0.0 0.0 0.00 0.01 0.01 91 1004.4
20181117013019 27 325 0.0 0.0 0.00 0.01 0.01 91 1004.2
20181117012017 27 325 0.0 0.0 0.00 0.01 0.01 91 1004.3
20181117011020 27 325 0.0 0.0 0.00 0.01 0.01 91 1004.2
20181117010019 27 325 0.0 0.0 0.00 0.01 0.01 91 1004.0
20181117004022 27 325 0.0 0.0 0.00 0.01 0.01 91 1004.0
20181117003022 27 325 0.0 0.0 0.00 0.01 0.01 91 1004.0
20181117002020 27 325 0.0 0.0 0.00 0.01 0.01 90 1003.9
20181117001024 27 325 0.0 0.0 0.00 0.01 0.01 90 1003.9
20181117000022 27 325 0.0 0.0 0.00 0.01 0.01 90 1003.8
20181116235021 27 325 0.0 0.0 0.00 0.01 0.01 90 1003.8
20181116234025 27 325 0.0 0.0 0.00 0.01 0.01 90 1003.7
20181116233023 27 325 0.0 0.0 0.00 0.01 0.01 90 1003.6
20181116232023 27 325 0.0 0.0 0.00 0.01 0.01 90 1003.6
20181116231022 27 325 0.0 0.0 0.00 0.01 0.01 90 1003.5
20181116230025 27 325 0.0 0.0 0.00 0.01 0.01 90 1003.5
20181116225024 27 325 0.0 0.0 0.00 0.01 0.01 90 1003.5
20181116224023 27 325 0.0 0.0 0.00 0.01 0.01 90 1003.4
20181116223026 27 325 0.0 0.0 0.00 0.01 0.01 89 1003.4
20181116222025 27 325 0.0 0.0 0.00 0.01 0.01 89 1003.4
20181116221024 27 325 0.0 0.0 0.00 0.01 0.01 89 1003.2
20181116220027 27 325 0.0 0.0 0.00 0.01 0.01 89 1003.3
20181116215026 28 325 0.0 0.0 0.00 0.01 0.01 89 1003.3
20181116214025 28 325 0.0 0.0 0.00 0.01 0.01 89 1003.3
20181116212029 28 327 0.0 0.0 0.00 0.01 0.01 88 1003.4
20181116211029 28 329 0.0 0.0 0.00 0.01 0.01 88 1003.3
20181116210028 28 332 0.0 0.0 0.00 0.01 0.01 88 1003.3
20181116205030 29 14 0.0 0.0 0.01 0.01 0.01 87 1003.2
20181116204029 29 13 0.0 0.0 0.01 0.01 0.01 87 1003.2
20181116203029 29 13 0.0 0.0 0.01 0.01 0.01 87 1003.2
20181116202031 29 13 0.0 0.0 0.01 0.01 0.01 86 1003.1
20181116200030 29 13 0.0 0.0 0.01 0.01 0.01 86 1003.1
20181116195012 30 13 0.0 0.0 0.00 0.00 0.00 86 1003.4
20181116194031 30 13 0.0 0.0 0.00 0.00 0.00 85 1003.5
20181116193030 30 14 0.0 0.0 0.00 0.00 0.00 85 1003.4
20181116191030 30 39 0.0 0.0 0.00 0.00 0.00 84 1003.3
20181116190028 30 41 0.0 0.0 0.00 0.00 0.00 84 1003.3
20181116185027 30 360 0.0 0.0 0.00 0.00 0.00 83 1003.3
20181116184031 30 40 0.0 0.0 0.00 0.00 0.00 83 1003.3
20181116183029 31 37 0.0 0.0 0.00 0.00 0.00 82 1003.3
20181116180014 32 5 0.0 0.0 0.00 0.00 0.00 82 1003.7
20181116174016 32 350 0.0 0.0 0.00 0.00 0.00 82 1004.0
20181116173015 32 67 0.0 0.0 0.00 0.00 0.00 83 1004.1
20181116172013 31 24 0.0 0.0 0.00 0.00 0.00 83 1004.3
20181116171015 31 22 0.0 0.0 0.00 0.00 0.00 84 1004.5
20181116165014 31 360 0.0 0.0 0.00 0.00 0.00 85 1005.0
20181116164016 31 355 0.0 0.0 0.00 0.00 0.00 86 1005.1
20181116162016 31 13 0.0 0.0 0.00 0.00 0.00 87 1005.6
20181116161016 30 355 0.0 0.0 0.00 0.00 0.00 87 1005.6
20181116160017 30 5 0.0 0.0 0.00 0.00 0.00 88 1005.8
20181116155015 30 30 0.0 0.0 0.00 0.00 0.00 88 1006.0
20181116154013 29 59 0.0 0.0 0.00 0.00 0.00 88 1006.2
20181116153016 30 360 0.0 0.0 0.00 0.00 0.00 88 1006.2
20181116152016 29 360 0.0 0.0 0.00 0.00 0.00 89 1006.5
20181116151013 29 360 0.0 0.0 0.00 0.00 0.00 90 1006.6
20181116150016 29 11 0.0 0.0 0.00 0.00 0.00 90 1006.5
20181116145014 28 355 0.0 0.0 0.00 0.00 0.00 90 1006.6
20181116144013 28 9 0.0 0.0 0.00 0.00 0.00 90 1006.8
20181116143016 28 51 0.0 0.0 0.00 0.00 0.00 91 1006.9
20181116142013 28 67 0.0 0.0 0.00 0.00 0.00 91 1006.9
20181116141013 28 42 0.0 0.0 0.00 0.00 0.00 92 1007.0
20181116140010 27 360 0.0 0.0 0.00 0.00 0.00 91 1007.2
20181116135013 27 67 0.0 0.0 0.00 0.00 0.00 91 1007.3
20181116134010 26 17 0.0 0.0 0.00 0.00 0.00 91 1007.4
20181116131017 26 34 0.0 0.0 0.00 0.00 0.00 91 1008.3
20181116130015 26 31 0.0 0.0 0.00 0.00 0.00 91 1008.5
20181116125017 26 46 0.0 0.0 0.00 0.00 0.00 91 1008.6
20181116124016 26 53 0.0 0.0 0.00 0.00 0.00 91 1008.8
20181116123015 26 58 0.0 0.0 0.00 0.00 0.00 91 1009.0
20181116122018 26 51 0.0 0.0 0.00 0.00 0.00 90 1009.1
20181116121016 26 49 0.0 0.0 0.00 0.00 0.00 90 1009.3
20181116120016 26 62 0.0 0.0 0.00 0.00 0.00 90 1009.7
20181116114018 26 69 0.0 0.0 0.00 0.00 0.00 90 1009.9
20181116113015 26 71 0.0 0.0 0.00 0.00 0.00 89 1010.1
20181116112014 26 72 0.0 0.0 0.00 0.00 0.00 89 1010.3
20181116110020 26 55 0.0 0.0 0.00 0.00 0.00 89 1011.0
20181116105019 26 55 0.0 0.0 0.00 0.00 0.00 89 1011.2
20181116104021 26 51 0.0 0.0 0.00 0.00 0.00 89 1011.4
20181116103020 26 58 0.0 0.0 0.00 0.00 0.00 88 1011.5
20181116102019 26 51 0.0 0.0 0.00 0.00 0.00 88 1011.8
20181116101022 26 81 0.0 0.0 0.00 0.00 0.00 88 1011.9
20181116100022 26 42 0.0 0.0 0.00 0.00 0.00 87 1012.2
20181116095020 26 51 0.0 0.0 0.00 0.00 0.00 87 1012.6
20181116094018 26 44 0.0 0.0 0.00 0.00 0.00 86 1012.7
20181116093021 26 61 0.0 0.0 0.00 0.00 0.00 86 1012.8
20181116092020 26 67 0.0 0.0 0.00 0.00 0.00 85 1012.9
20181116091020 26 49 0.0 0.0 0.00 0.00 0.00 84 1013.2
20181116090023 26 50 0.0 0.0 0.00 0.00 0.00 83 1013.4
20181116085022 26 57 0.0 0.0 0.00 0.00 0.00 82 1013.5
20181116084021 26 46 0.0 0.0 0.00 0.00 0.00 80 1013.8
20181116082024 27 30 0.0 0.0 0.00 0.00 0.00 77 1014.1
20181116081023 27 46 0.0 0.0 0.00 0.00 0.00 73 1014.4
20181116080026 27 5 0.0 0.0 0.00 0.00 0.00 71 1014.7
20181116075024 27 5 0.0 0.0 0.00 0.00 0.00 70 1014.9
20181116074023 27 17 0.0 0.0 0.00 0.00 0.00 71 1015.0
20181116073020 27 355 0.0 0.0 0.00 0.00 0.00 71 1015.2
20181116072023 27 14 0.0 0.0 0.00 0.00 0.00 71 1015.7
20181116071023 27 11 0.0 0.0 0.00 0.00 0.00 71 1016.0
20181116065027 26 26 0.0 0.0 0.00 0.00 0.00 71 1016.3
20181116064025 26 29 0.0 0.0 0.00 0.00 0.00 71 1016.5
20181116063024 26 30 0.0 0.0 0.00 0.00 0.00 71 1016.7